Location: Bord�res
(43.2000°N, 0.2167°W)
Time: 13:47:58
(UTC+00:00)

ATLAS CENTAUR R/B - Pass Details

Date: 03 March 2021
Orbit: 475 x 670 km, 64.7° (Epoch: 30 March)

Event Time Altitude Azimuth Distance (km) Brightness Sun altitude
Rises 19:55:48 0° 241° (WSW) 2,521 5.4 -23.1°
Reaches altitude 10° 19:58:09 10° 254° (WSW) 1,641 4.5 -23.5°
Maximum altitude 20:01:17 27° 313° (NW) 956 3.1 -24.1°
Enters shadow 20:03:16 17° 359° (N) 1,279 3.3 -24.4°
